Hourly Data Report for April 26, 2017

All times are specified in Local Standard Time (LST). Add 1 hour to adjust for Daylight Saving Time where and when it is observed.

VICTORIA HARBOUR A
BRITISH COLUMBIA

48°25'22.000" N
123°23'15.000" W
     
1018633
YWH

Related Data

No related data is available for this station

Download Data

Hourly Data (April 2017)
Hourly Data Report for April 26, 2017
Temp Definition
°C
Dew Point Temp Definition
°C
Rel Hum Definition
%
Wind Dir Definition
10's deg

Wind Spd Definition
km/h
Visibility Definition
km
Stn Press Definition
kPa
Hmdx Definition


Wind Chill Definition


Weather Definition


TIME
00:00 Legend Double Dagger 9.9 7.9 87 9 2 LegendMM 100.66     LegendNANA
01:00 Legend Double Dagger 9.9 7.7 86 0 1 LegendMM 100.70     LegendNANA
02:00 Legend Double Dagger 10.2 8.0 86 26 16 LegendMM 100.70     LegendNANA
03:00 Legend Double Dagger 10.1 7.0 81 28 25 LegendMM 100.71     LegendNANA
04:00 Legend Double Dagger 9.6 7.2 85 25 21 LegendMM 100.73     LegendNANA
05:00 Legend Double Dagger 9.1 6.7 85 24 21 LegendMM 100.74     LegendNANA
06:00 Legend Double Dagger 9.1 6.4 83 25 19 LegendMM 100.78     LegendNANA
07:00 Legend Double Dagger 9.4 6.2 80 26 17 LegendMM 100.82     LegendNANA
08:00 Legend Double Dagger 9.8 5.6 75 26 31 LegendMM 100.83     LegendNANA
09:00 Legend Double Dagger 9.6 5.4 75 25 23 LegendMM 100.90     LegendNANA
10:00 Legend Double Dagger 10.3 5.1 70 26 32 LegendMM 100.94     LegendNANA
11:00 Legend Double Dagger 10.4 4.4 66 26 30 LegendMM 100.96     LegendNANA
12:00 Legend Double Dagger 10.4 4.6 67 24 36 LegendMM 101.00     LegendNANA
13:00 Legend Double Dagger 10.9 4.4 64 26 31 LegendMM 101.06     LegendNANA
14:00 Legend Double Dagger 11.6 2.7 54 26 32 LegendMM 101.04     LegendNANA
15:00 Legend Double Dagger 11.5 3.3 57 26 28 LegendMM 101.04     LegendNANA
16:00 Legend Double Dagger 11.1 3.4 59 25 35 LegendMM 101.08     LegendNANA
17:00 Legend Double Dagger 10.8 2.9 58 26 36 LegendMM 101.15     LegendNANA
18:00 Legend Double Dagger 10.2 3.5 63 25 32 LegendMM 101.18     LegendNANA
19:00 Legend Double Dagger 9.5 3.5 66 26 25 LegendMM 101.23     LegendNANA
20:00 Legend Double Dagger 8.9 4.2 72 25 25 LegendMM 101.32     LegendNANA
21:00 Legend Double Dagger 8.5 4.4 75 24 23 LegendMM 101.39     LegendNANA
22:00 Legend Double Dagger 8.0 4.4 78 26 22 LegendMM 101.45     LegendNANA
23:00 Legend Double Dagger 8.0 4.2 77 24 16 LegendMM 101.48     LegendNANA

Notes on Data Quality.

Legend

  • E = Estimated
  • M = Missing
  • NA = Not Available
  • ‡ = Partner data that is not subject to review by the National Climate Archives
Date modified: